ELECTRON R/B (49952 NORAD) Tracking and Keplerian Element Data

This shows tracking and keplerian element data for the satellite.

Feedback or suggestion? Click here.




ElementValue
Catalog49952
NameELECTRON R/B
Epoch Orbit134
Epoch Day351.35870183
Epoch Year2021
RAAN319.0258
Inclination42.0025
Eccentricity0.001502
Argument of Perigee292.2912
Mean Anonmoly67.852
Mean Motion16.49000273
Decay Rate0.2256403
L11 49952U 21120D 21351.35870183 .22564030 88399-5 25482-3 0 9990
L22 49952 42.0025 319.0258 0015020 292.2912 67.8520 16.49000273 1345



Live tracking and technical data element details for ELECTRON R/B (NORAD 49952). ELECTRON R/B can be tracked NOW for your location showing map with azimuth and elevation plus other details from your city location.







IsCatalogInMostPopularTable: catalog: 49952, numindb: 36
Update: records affected: 1



GetName: 49952 ELECTRON R/B

Hit Count: updated at: Sun, 11 Jun 2023 00:50:58 GMT